Location: Calberlah
(52.4230°N, 10.6240°E)
Time: 00:46:22
(UTC+00:00)

Ariane Rocket - Pass Details

Date: 19 May 2025
Orbit: 755 x 764 km, 98.5° (Epoch: 15 June)

Event Time Altitude Azimuth Distance (km) Brightness Sun altitude
Exits shadow 21:17:00 11° 191° (S) 2,190 4.9 -13.3°
Maximum altitude 21:21:33 44° 262° (W) 1,056 3.9 -13.6°
Drops below altitude 10° 21:26:24 10° 334° (NNW) 2,312 7.0 -13.9°
Sets 21:28:50 0° 341° (NNW) 3,244 8.2 -14.1°
